Other Public Products
Issued by NWS Grand Forks, ND

Home | Current Version | Previous Version | Graphics & Text | Print | Product List | Glossary On
Versions: 1 2 3 4 5 6 7 8 9 10 11 12 13 14 15 16 17 18 19 20 21 22 23 24 25 26 27 28 29 30 31 32 33 34 35 36 37 38 39 40 41 42 43 44 45 46 47 48 49 50
000
FPUS83 KFGF 310710
OPUFGF
PRAIRIE TO PINES WEATHER ROUNDUP
NATIONAL WEATHER SERVICE EASTERN NORTH DAKOTA/GRAND FORKS ND
200 AM CDT WED AUG 31 2016

 **SATELLITE DATA USED TO AUGMENT SKY COVER AT AUTOMATED STATIONS**
 *****  WEATHER ACROSS EASTERN NORTH DAKOTA  *****

CITY           SKY/WX    TMP DP  RH WIND       PRES   REMARKS
GRAND FORKS    CLEAR     55  50  83 CALM      30.23R
GRAND FORKS AF CLEAR     55  51  86 N3        30.24R
GRAND CITY NWS   N/A     57 N/A N/A N2          N/A
BUXTON           N/A     64  62  94 CALM        N/A
DEVILS LAKE    CLEAR     60  52  74 E6        30.25S
FARGO          PTCLDY    58  54  86 CALM      30.21R
WAHPETON ARPT  SUNNY     57  52  82 CALM      30.21S
$$

 *****  WEATHER ACROSS CENTRAL AND WESTERN NORTH DAKOTA  *****

CITY           SKY/WX    TMP DP  RH WIND       PRES   REMARKS
JAMESTOWN      MOCLDY    60  54  80 S3        30.22S
BISMARCK       CLEAR     62  55  77 E8        30.20R
MINOT          CLEAR     60  53  77 E7        30.20S
MINOT AFB      CLEAR     58  51  77 E7        30.20R
GARRISON         N/A     63  56  78 E8        30.20R
WILLISTON      CLEAR     71  49  45 E9        30.13F
DICKINSON      CLEAR     63  56  78 SE8       30.13F
HETTINGER      CLEAR     66  57  72 SE9       30.17F
$$

 *****  OTHER OBSERVATIONS NORTHEAST NORTH DAKOTA  *****

CITY           SKY/WX    TMP DP  RH WIND       PRES   REMARKS
WALHALLA       NOT AVBL
LANGDON        FAIR      54  43  66 E7        30.27S
CAVALIER       FAIR      54  48  82 NW5       30.25S
GRAFTON        FAIR      55  48  76 N7        30.26S
CANDO          NOT AVBL
FORT TOTTEN    NOT AVBL
ROLLA          FAIR      50  48  93 CALM      30.28S
RUGBY          FAIR      57  55  94 E10       30.23R
 ***** THE ABOVE OBSERVATIONS ARE NON NWS ARE NOT QUALITY
        CONTROLLED AND MAY MIS-REPORT RAIN FOR SNOW...
$$

 *****  OTHER OBSERVATIONS SOUTHEAST NORTH DAKOTA *****

CITY           SKY/WX    TMP DP  RH WIND       PRES   REMARKS
COOPERSTOWN    NOT AVBL
VALLEY CITY    FAIR      57  55  94 CALM      30.25S
OAKES            N/A    N/A N/A N/A MISG        N/A
GWINNER        FAIR      55  54  94 CALM      30.23S
SHEYENNE NWR     N/A     57  53  88 CALM      29.95S
BUFFALO          N/A     56  51  84 NE6         N/A
WYNDMERE       NOT AVBL
 ***** THE ABOVE OBSERVATIONS ARE NON NWS ARE NOT QUALITY
       CONTROLLED AND MAY MIS-REPORT RAIN FOR SNOW...
$$

  *****  WEATHER ACROSS NORTHERN MINNESOTA  *****

CITY           SKY/WX    TMP DP  RH WIND       PRES   REMARKS
FLAG ISLAND    CLEAR     61  54  77 CALM      30.22S HAZE
WARROAD        CLEAR     54  48  82 NW3       30.24S
ROSEAU         CLEAR     52  46  82 CALM      30.24S
HALLOCK        CLEAR     52  46  82 NW3       30.24S
THF RVR FALLS  PTCLDY    57  51  80 NE5       30.24S
HALSTAD          N/A     56  54  92 N3          N/A
FOSSTON        CLOUDY    48  46  93 CALM      30.24S
BAUDETTE       PTCLDY    49  48  97 W3        30.22R
WASKISH        PTCLDY    48  48 100 CALM      30.22S FOG
CROOKSTON      CLEAR     57  52  82 NE5       30.24S
$$
  *****  WEATHER ACROSS CENTRAL AND WEST MINNESOTA  *****

CITY           SKY/WX    TMP DP  RH WIND       PRES   REMARKS
BEMIDJI        CLOUDY    48  48  98 W3        30.23R
PARK RAPIDS    NOT AVBL
WADENA         NOT AVBL
DETROIT LAKES  CLEAR     59  55  88 CALM      30.24S
MOORHEAD       CLEAR     55  54  94 CALM      30.23R
FERGUS FALLS   CLEAR     61  55  82 NE3       30.23S
ELBOW LAKE     FAIR      64  57  80 CALM      30.22S
MORRIS MN      CLEAR     59  55  88 NE5       30.20S
STAPLES        CLEAR     54  54 100 CALM      30.22F
WHEATON        CLEAR     57  55  94 CALM      30.23S
$$
  *****  WEATHER ELSEWHERE ACROSS MINNESOTA  *****

CITY           SKY/WX    TMP DP  RH WIND       PRES   REMARKS
DULUTH         CLEAR     54  50  86 N5        30.19S
INTRNTL FALLS  PTCLDY    43  41  93 CALM      30.20S
ELY            CLEAR     46  46 100 CALM      30.19S
CLOQUET        CLEAR     52  48  87 NW5       30.20S
BRAINERD       CLEAR     54  53  97 CALM      30.22S FOG
HIBBING        CLEAR     44  44 100 CALM      30.20S
ALEXANDRIA     CLEAR     61  55  81 NE6       30.23S
SAINT CLOUD    CLEAR     56  55  97 CALM      30.20S
MINNEAPOLIS    CLEAR     63  54  72 N3        30.18S
$$

  *****  WEATHER ACROSS SOUTH DAKOTA  *****

CITY           SKY/WX    TMP DP  RH WIND       PRES   REMARKS
SIOUX FALLS    CLEAR     60  57  89 NE5       30.21R
BROOKINGS      CLEAR     61  58  90 NE3       30.22S
WATERTOWN      PTCLDY    60  55  83 CALM      30.23R
HURON          CLOUDY    68  60  75 SE7       30.19S
SISSETON         N/A     54  52  93 CALM      30.21S
ABERDEEN       PTCLDY    62  55  77 CALM      30.21R
MITCHELL       CLEAR     66  63  90 E3        30.20R
PIERRE         CLEAR     67  65  93 E3        30.16R
MOBRIDGE       CLOUDY    70  58  65 SE10      30.16S
RAPID CITY     CLEAR     63  56  78 SE7       30.20F
$$

  *****  SOME WEATHER IN NEARBY STATES *****

CITY           SKY/WX    TMP DP  RH WIND       PRES   REMARKS
GLASGOW MT     PTCLDY    72  55  55 E18       30.01F
GREAT FALLS MT PTCLDY    69  46  43 E9        30.00F
CHEYENNE WY    CLEAR     56  52  86 W5        30.37F
SCOTTSBLUFF NE   N/A     60  56  86 E7        30.27F
OMAHA NE       CLOUDY    71  68  90 N5        30.16S
DES MOINES IA  CLOUDY    72  63  73 NE10      30.15R
DAVENPORT IA   CLOUDY    70  69  97 NW5       30.10S
CHICAGO IL     MOCLDY    71  67  87 NW5       30.04S
EAU CLAIRE WI  CLEAR     54  52  93 CALM      30.16R
LA CROSSE WI   CLOUDY    64  61  90 N3        30.14S
$$

  *****  SOME NATIONAL WEATHER *****

CITY           SKY/WX    TMP DP  RH WIND       PRES   REMARKS
LA GUARDIA NY  CLOUDY    77  71  82 S6        30.03S
RALEIGH NC     MOCLDY    74  70  87 CALM      30.05S
ATLANTA GA     CLEAR     76  69  79 E5        30.03S
NEW ORLEANS LA PTCLDY    84  77  79 NE6       29.89F HX  94
OKLAHOMA CITY  CLOUDY    77  69  76 N8        30.08F
ALBUQUERQUE NM CLOUDY    67  56  67 E22       30.29S
SALT LAKE CITY PTCLDY    79  35  20 S12       30.02S
LOS ANGELES CA PTCLDY    71  66  84 E5        29.84R
BOISE ID       PTCLDY    67  42  40 S6        29.88F
SEATTLE WA     PTCLDY    59  53  80 S5        30.00S
$$

*** WEATHER ACROSS MANITOBA...SASKATCHEWAN AND ONTARIO ***
                ***ONTARIO***

CITY           SKY/WX    TMP DP  RH WIND       PRES   REMARKS
GERALDTON      MOCLDY    57  52  82 NW8       30.08R
THUNDER BAY    MOCLDY    54  52  94 SW6       30.13S
SIOUX LOOKOUT  CLOUDY    59  54  82 N3        30.18S
TORONTO        CLOUDY    73  63  68 W12       29.96F
BIG TROUT LK   LGT RAIN  50  48  93 NW10G20   30.13S
PICKLE LAKE    NOT AVBL
DRYDEN         CLEAR     54  50  87 W7        30.20S
KENORA         CLEAR     55  50  82 NW3       30.23R
$$
                *** MANITOBA***

CITY           SKY/WX    TMP DP  RH WIND       PRES   REMARKS
BRANDON        PTCLDY    50  48  93 E7        30.28R
DAUPHIN        CLEAR     46  45  93 W2        30.30R
ISLAND LAKE    CLOUDY    54  50  87 N8G17     30.28R
PILOT MOUND      N/A     52  46  82 NE7         N/A
THE PAS        CLOUDY    57  50  77 E6        30.32S
THOMPSON       CLEAR     39  37  93 N2        30.35R
WINNIPEG       NOT AVBL
LYNN LAKE      FOG       45  43  93 MISG      30.33S VSB 1/2
CHURCHILL      CLEAR     46  45  93 N10       30.33R
GILLAM         PTCLDY    48  45  87 N16       30.31R
$$
                ***SASKATCHEWAN***

CITY           SKY/WX    TMP DP  RH WIND       PRES   REMARKS
ESTEVAN        PTCLDY    57  50  77 E9        30.19S
KINDERSLEY     PTCLDY    57  50  77 E20G26    30.08F
LLOYDMINSTER   CLEAR     54  46  76 E14       30.14F
PRINCE ALBERT  CLEAR     46  45  93 E7        30.27R
REGINA         CLEAR     63  50  63 E16G23    30.18F
YORKTON        CLEAR     50  46  87 E5        30.28R   C1F1C2F2C3F3C4F4C5F5C6F6C7F7C8F8C9F9CaFaCbFbCcFcCdFdCe!



USA.gov is the U.S. government's official web portal to all federal, state and local government web resources and services.